{"data":{"norad_id":43175,"intl_designator":"2018-012B","name":"SES-14","alt_names":[],"object_type":"PAYLOAD","status":"ACTIVE","operator":null,"country":"SES","launch_date":"2018-01-25","launch_site_code":"FRGUI","launch_vehicle":null,"mission":null,"orbit_class":"UNKNOWN","rcs_meters":null,"size_class":null,"mass_kg":null,"dimensions":null,"purposes":["comms"],"wikipedia_slug":null,"has_3d_model":false,"image_url":null,"decayed_at":null,"tle_current":{"epoch":"2026-09-19T09:54:10.073376Z","epoch_age_seconds":108430,"freshness":"FRESH","line1":"1 43175U 18012B   26262.41261659 -.00000283  00000+0  00000+0 0  9996","line2":"2 43175   0.0274  57.9502 0001182 105.0353 296.3921  1.00272464  7973","mean_motion":1.00272464,"eccentricity":0.0001182,"inclination_deg":0.0274,"raan_deg":57.9502,"arg_perigee_deg":105.0353,"mean_anomaly_deg":296.3921,"bstar":0,"rev_number":797,"period_min":1436.0871794274,"perigee_km":35781.420765098,"apogee_km":35791.388462735,"semimajor_km":42164.541613916,"source":"CELESTRAK","updated_at":"2026-09-20T09:00:35.685296Z"}}}